Appleton, WI

3:58 AM CST on January 24, 2018 (GMT -0600)
Outagamie County Regional

Weather History for KATW - August, 2013

Change the Weather History Date:

Monday, August 26, 2013

  Actual Average Record
Temperature  
Mean Temperature 79 °F -  
Max Temperature 89 °F 78 °F 94 °F (1948)
Min Temperature 69 °F 60 °F 47 °F (1964)
Cooling Degree Days 14    
Growing Degree Days 29 (Base 50)    
Moisture  
Dew Point 68 °F    
Average Humidity 72    
Maximum Humidity 94    
Minimum Humidity 49    
Precipitation  
Precipitation 0.00 in - - ()
Sea Level Pressure  
Sea Level Pressure 30.02 in    
Wind  
Wind Speed 9 mph (SW)    
Max Wind Speed 15 mph    
Max Gust Speed -    
Visibility 10 miles    
Events Rain    
Averages and records for this station are not official NWS values.
T = Trace of Precipitation, MM = Missing Value Source: NWS Daily Summary

Daily Weather History Graph

Daily Weather History Graph

Search for Another Location

Airport or City:

Trip Planner

Search our weather history database for the weather conditions in past years. The results will help you decide how hot, cold, wet, or windy it might be!

Date:

Astronomy

Aug. 26, 2013 Rise Set
Actual Time 6:10 AM CDT 7:40 PM CDT
Civil Twilight 5:40 AM CDT 8:10 PM CDT
Nautical Twilight 5:03 AM CDT 8:47 PM CDT
Astronomical Twilight 4:23 AM CDT 9:26 PM CDT
Moon 10:35 PM CDT (8/26) 12:27 PM CDT (8/26)
Length of Visible Light 14h 30m
Length of Day
13h 29m
Waning Gibbous, 66% of the Moon is Illuminated
Aug 26
Waning Gibbous
Aug 28
Last Quarter
Sep 5
New
Sep 12
First Quarter
Sep 19
Full

Hourly Weather History & Observations

Time (CDT) Temp. Heat Index Dew Point Humidity Pressure Visibility Wind Dir Wind Speed Gust Speed Precip Events Conditions
1:15 AM 73.4 °F - 62.6 °F 69% 30.06 in 10.0 mi SW 11.5 mph - N/A   Clear
1:35 AM 73.4 °F - 62.6 °F 69% 30.06 in 10.0 mi SW 10.4 mph - N/A   Clear
5:15 AM 71.6 °F - 62.6 °F 73% 30.05 in 10.0 mi SW 9.2 mph - N/A   Clear
6:45 AM 73.4 °F - 64.4 °F 73% 30.07 in 10.0 mi SW 5.8 mph - N/A   Mostly Cloudy
7:45 AM 73.4 °F - 64.4 °F 73% 30.12 in 10.0 mi WNW 10.4 mph - N/A   Overcast
8:45 AM 73.4 °F - 66.2 °F 78% 30.10 in 10.0 mi Variable 3.5 mph - N/A   Overcast
9:25 AM 71.6 °F - 68.0 °F 88% 30.12 in 10.0 mi WSW 8.1 mph - N/A Rain Light Rain
9:45 AM 71.6 °F - 69.8 °F 94% 30.14 in 5.0 mi West 11.5 mph - N/A Rain Light Rain
10:45 AM 69.8 °F - 66.2 °F 88% 30.04 in 10.0 mi SSW 9.2 mph - N/A Rain Light Rain
11:45 AM 71.6 °F - 69.8 °F 94% 30.00 in 10.0 mi Variable 4.6 mph - N/A   Mostly Cloudy
12:45 PM 80.6 °F 83.9 °F 69.8 °F 70% 30.00 in 10.0 mi SW 15.0 mph - N/A   Mostly Cloudy
2:45 PM 87.8 °F 90.4 °F 66.2 °F 49% 29.99 in 10.0 mi SW 11.5 mph - N/A   Scattered Clouds
3:45 PM 87.8 °F 90.4 °F 66.2 °F 49% 29.97 in 10.0 mi West 10.4 mph - N/A   Partly Cloudy
4:45 PM 89.6 °F 93.4 °F 68.0 °F 49% 29.96 in 10.0 mi SW 10.4 mph - N/A   Clear
5:45 PM 87.8 °F 92.6 °F 69.8 °F 55% 29.96 in 10.0 mi SW 6.9 mph - N/A   Partly Cloudy
6:45 PM 86.0 °F 91.8 °F 71.6 °F 62% 29.96 in 10.0 mi Variable 4.6 mph - N/A   Scattered Clouds
7:45 PM 82.4 °F 87.2 °F 71.6 °F 70% 29.95 in 10.0 mi Variable 5.8 mph - N/A   Scattered Clouds
8:45 PM 82.4 °F 87.2 °F 71.6 °F 70% 29.96 in 10.0 mi Calm Calm - N/A   Scattered Clouds
9:45 PM 77.0 °F - 71.6 °F 83% 29.96 in 10.0 mi Calm Calm - N/A   Scattered Clouds
10:45 PM 75.2 °F - 69.8 °F 83% 29.96 in 10.0 mi Calm Calm - N/A   Scattered Clouds